Location: El Carrer d�Abaix
(41.5797°N, 2.1791°E)
Time: 12:58:37
(UTC+00:00)

Meteor 2-5 Rocket - Pass Details

Date: 06 June 2020
Orbit: 834 x 911 km, 81.2° (Epoch: 11 July)

Event Time Altitude Azimuth Distance (km) Brightness Sun altitude
Exits shadow 22:46:20 54° 128° (SE) 1,022 3.8 -24.0°
Maximum altitude 22:47:05 59° 95° (E) 976 3.8 -24.0°
Drops below altitude 10° 22:52:38 10° 17° (NNE) 2,503 6.9 -24.3°
Sets 22:55:07 0° 14° (NNE) 3,455 7.9 -24.4°
